Weather History for 12843 - December, 2013

Change the Weather History Date:

Friday, December 27, 2013

  Actual Average Record
Temperature  
Mean Temperature 47 °F -  
Max Temperature 54 °F 34 °F - ()
Min Temperature 40 °F 25 °F - ()
Degree Days  
Heating Degree Days 18    
Moisture  
Dew Point 41 °F    
Average Humidity 77    
Maximum Humidity 86    
Minimum Humidity 55    
Precipitation  
Precipitation 0.00 in 0.04 in - ()
Sea Level Pressure  
Sea Level Pressure 29.86 in    
Wind  
Wind Speed 5 mph ()    
Max Wind Speed 7 mph    
Max Gust Speed -    
Visibility 7.5 miles    
Events Rain    
T = Trace of Precipitation, MM = Missing Value Source: Averaged Metar Reports

Daily Weather History Graph

Daily Weather History Graph

Search for Another Location

Airport or City:

Trip Planner

Search our weather history database for the weather conditions in past years. The results will help you decide how hot, cold, wet, or windy it might be!

Date:

Astronomy

Dec. 27, 2013 Rise Set
Actual Time 7:30 AM CET 3:58 PM CET
Civil Twilight 6:54 AM CET 4:34 PM CET
Nautical Twilight 6:15 AM CET 5:13 PM CET
Astronomical Twilight 5:37 AM CET 5:51 PM CET
Moon 1:27 AM CET (12/27) 12:11 PM CET (12/27)
Length of Visible Light 9h 40m
Length of Day
8h 28m
Waning Crescent, 31% of the Moon is Illuminated
Dec 27
Waning Crescent
Jan 1
New
Jan 8
First Quarter
Jan 16
Full
Jan 24
Last Quarter

Hourly Weather History & Observations

Time (CET) Temp. Dew Point Humidity Pressure Visibility Wind Dir Wind Speed Gust Speed Precip Events Conditions
12:00 AM 46 °F 43 °F 84% 29.69 in 9 mi East 6.7 mph - - Rain Light Rain
1:00 AM 46 °F 43 °F 85% 29.70 in 9 mi East 4.5 mph - - Rain Light Rain
2:00 AM 45 °F 42 °F 85% 29.72 in 9 mi East 6.7 mph - - Rain Light Rain
3:00 AM 45 °F 42 °F 84% 29.74 in 7 mi East 6.7 mph - - Rain Light Rain
4:00 AM 45 °F 41 °F 82% 29.75 in 9 mi East 6.7 mph - - Rain Light Rain
5:00 AM 45 °F 41 °F 81% 29.76 in 9 mi ENE 6.7 mph - -   Partly Cloudy
6:00 AM 44 °F 40 °F 83% 29.80 in 9 mi ENE 4.5 mph - - Rain Light Rain
7:00 AM 44 °F 41 °F 84% 29.82 in 9 mi NNE 4.5 mph - - Rain Light Rain
8:00 AM 44 °F 41 °F 85% 29.84 in 11 mi NE 2.2 mph - - Rain Light Rain
9:00 AM 45 °F 40 °F 78% 29.86 in 7 mi East 4.5 mph - - Rain Light Rain
10:00 AM 47 °F 42 °F 76% 29.86 in 7 mi NNE 2.2 mph - -   Partly Cloudy
11:00 AM 51 °F 42 °F 61% 29.88 in 7 mi ESE 4.5 mph - -   Partly Cloudy
12:00 PM 51 °F 42 °F 64% 29.88 in 7 mi East 2.2 mph - -   Partly Cloudy
1:00 PM 53 °F 43 °F 59% 29.87 in 9 mi NE 4.5 mph - -   Partly Cloudy
2:00 PM 53 °F 42 °F 55% 29.88 in 9 mi East 6.7 mph - -   Partly Cloudy
3:00 PM 53 °F 42 °F 57% 29.89 in 7 mi East 6.7 mph - -   Partly Cloudy
4:00 PM 50 °F 41 °F 63% 29.91 in 7 mi East 4.5 mph - -   Partly Cloudy
5:00 PM 46 °F 40 °F 74% 29.93 in 6 mi East 2.2 mph - -   Partly Cloudy
6:00 PM 44 °F 40 °F 80% 29.95 in 6 mi East 4.5 mph - -   Partly Cloudy
7:00 PM 43 °F 39 °F 82% 29.96 in 6 mi East 6.7 mph - -   Partly Cloudy
8:00 PM 43 °F 39 °F 81% 29.97 in 6 mi East 6.7 mph - -   Partly Cloudy
9:00 PM 42 °F 38 °F 83% 29.99 in 5 mi NE 2.2 mph - -   Partly Cloudy
10:00 PM 40 °F 37 °F 86% 30.00 in 5 mi ESE 6.7 mph - -   Partly Cloudy
11:00 PM 41 °F 38 °F 85% 30.01 in 4 mi NE 2.2 mph - -   Partly Cloudy